Regional Weather Roundup
Issued by NWS

Home | Current Version | Previous Version | Graphics & Text | Print | Product List | Glossary On
Versions: 1 2 3 4 5 6 7 8 9 10 11 12 13 14 15 16 17 18 19 20 21 22 23 24 25 26 27 28 29 30 31 32 33 34 35 36 37 38 39 40 41 42 43 44 45 46 47 48 49 50
000
ASUS45 KCYS 020810
RWRWY

WYOMING REGIONAL WEATHER ROUNDUP
NATIONAL WEATHER SERVICE CHEYENNE WY
200 AM MDT THU OCT 02 2014

NOTE:  "FAIR" INDICATES FEW OR NO CLOUDS BELOW 12,000 FEET
WITH NO SIGNIFICANT WEATHER AND/OR OBSTRUCTIONS TO VISIBILITY.

WYZ001-020900-
YELLOWSTONE NATIONAL PARK

CITY           SKY/WX    TMP DP  RH WIND       PRES   REMARKS
LK YELLOWSTONE   N/A     26  24  92 CALM      30.19R
W YELLOWSTONE  NOT AVBL

$$
WYZ002>013-054>058-071-098>099-020900-
NORTHERN WYOMING

CITY           SKY/WX    TMP DP  RH WIND       PRES   REMARKS
JACKSON        PTCLDY    37  30  75 S9        30.18R WCI  31
CODY           CLEAR     48  27  43 W16G29    30.02R
GREYBULL       CLEAR     42  38  85 SE5       30.03S
WORLAND        CLEAR     38  34  85 SE7       30.04S WCI  33
SHERIDAN       CLEAR     36  30  79 S6        29.99S WCI  31
BUFFALO        CLEAR     41  30  65 SW6       30.03S
GILLETTE       CLEAR     40  36  86 SW12      30.02R WCI  33
HULETT         FAIR      37  34  87 S9        30.02  WCI  31
NEWCASTLE      FAIR      39  37  93 N6        30.04  WCI  35

$$
WYZ014>020-022>026-101>103-020900-
CENTRAL WYOMING

CITY           SKY/WX    TMP DP  RH WIND       PRES   REMARKS
BIG PINEY      CLEAR     34  25  69 NW5       30.20R WCI  30
PINEDALE       SUNNY     32  28  86 W5        30.19S WCI  27
DUBOIS         PTSUNNY   34  25  69 NW8       30.13R WCI  27
LANDER         NOT AVBL
RIVERTON       CLEAR     36  31  82 SW9       30.10R WCI  29
CASPER         CLEAR     34  32  92 SW6       30.10S WCI  29
DOUGLAS        CLEAR     37  35  92 NW5       30.09R WCI  33

$$
WYZ021-027>030-104>119-020900-
SOUTHERN WYOMING

CITY           SKY/WX    TMP DP  RH WIND       PRES   REMARKS
EVANSTON       PTCLDY    31  28  89 SW10      30.24F WCI  22
KEMMERER       SUNNY     32  30  93 CALM      30.21F
FORT BRIDGER   FAIR      37  31  81 SW13      30.25F WCI  28
ROCK SPRINGS   CLEAR     34  29  82 SW16      30.20S WCI  24
DIXON          FAIR      34  33  95 CALM      30.23R
RAWLINS        CLEAR     33  30  88 W16       30.16S WCI  23
SARATOGA       FAIR      32  32 100 W12       30.18R WCI  23
LARAMIE        PTCLDY    32  29  88 N7        30.11R WCI  26
CHEYENNE       MOCLDY    37  35  92 W5        30.09R WCI  33
TORRINGTON     PTCLDY    39  38  96 NW7       30.06R WCI  34
PINE BLUFFS    FAIR      37  36  93 CALM      30.08R

$$


USA.gov is the U.S. government's official web portal to all federal, state and local government web resources and services.